Погода в Шалимовке

Россия / Орловская область     52°30′59″N   37°10′26″E
темп.,
°C
ветер,
м/с
пор.,
м/с
влажн.,
%
обл.,
%
осадки,
мм/ч
давл.,
гПа
погр.,
м
8 марта, пн
пн800:00−4з4128398 0.9 1003313
03:00−6зюз5118599 0.9 1003250
06:00−6зюз5137882 0.0 1003305
09:00−6з5139079 0.0 1003523
12:00−4з7118513 0.0 1005978
15:00−3зсз588339 0.1 1006931
18:00−7з348715 0.0 100741
21:00−8зсз339145 0.0 100939
9 марта, вт
вт900:00−9с229395 0.1 101021
03:00−12ссз348997 0.1 101139
06:00−13ссз339398 0.0 101254
09:00−11ссз369597 0.1 1014262
12:00−10ссз578992 0.1 1016493
15:00−10ссз478793 0.1 1018637
18:00−13сз3492100 0.0 101962
21:00−15сз349264 0.0 102244
10 марта, ср
ср1000:00−17сз34934 0.0 102366
03:00−18сз349626 0.0 102530
06:00−20сз34960 0.0 102631
09:00−19ссз24940 0.0 1027133
12:00−15с248646 0.0 1028321
15:00−13с348671 0.0 1028490
18:00−17св239194 0.1 102830
21:00−22св339251 0.1 103020
11 марта, чт
чт1100:00−23св22910 0.0 103220
03:00−24св22890 0.0 103320
06:00−24ссв228610 0.0 103320
09:00−21с128628 0.0 103443
12:00−16сз117518 0.0 1034209
15:00−14зсз11759 0.0 1033228
18:00−18зюз00850 0.0 103320
21:00−20ю12830 0.0 103320
12 марта, пт
пт1200:00−20ююв33820 0.0 103320
03:00−20ююв34810 0.0 103234
06:00−19ююв45880 0.0 103181
09:00−14ю6128233 0.0 1030302
12:00−9ю71378100 0.0 1028558
15:00−7ю81475100 0.0 1026650
18:00−7ю81772100 0.0 1023716
21:00−7ю91979100 0.2 1022796